GFSFLT2_sfc_dewp_072.txt.gz
Dewpoint
40 39 41 42 41 42 41 41 42 45 46 47 48 48 48 48 48 48 48 48 47 47 47 47 47 47 47
40 40 40 40 40 40 39 38 39 41 43 44 45 44 44 45 46 45 46 45 45 45 45 45 46 45 45
39 39 39 38 38 38 37 38 36 34 37 38 39 40 41 42 42 42 41 41 42 42 41 40 40 41 42
38 37 36 36 35 34 35 33 30 27 28 30 32 32 34 35 35 35 36 35 36 37 38 38 37 37 38
35 34 32 30 29 28 28 27 28 26 26 26 26 26 27 26 26 26 28 31 34 35 37 37 37 36 36
29 24 23 24 24 24 26 23 25 26 23 21 22 21 21 22 23 27 28 29 30 31 32 33 33 34 35
22 21 21 23 29 28 25 25 23 22 22 20 19 16 21 20 26 29 29 30 32 32 32 32 34 35 34
26 26 27 28 27 29 28 25 23 22 23 23 21 21 24 24 25 28 30 31 32 33 34 34 33 34 35
26 25 26 26 26 25 26 25 22 20 23 24 25 25 25 24 24 29 31 32 31 32 33 33 33 33 33
17 16 18 22 24 24 25 27 26 26 25 26 26 25 27 26 27 26 25 27 29 30 31 31 32 31 30
14 17 20 22 24 25 25 30 28 27 25 27 26 25 25 25 26 27 27 26 25 25 27 29 30 30 30
17 19 21 24 26 27 26 27 27 28 27 30 26 26 25 23 23 27 28 28 29 28 29 29 30 30 31
20 24 26 28 28 28 28 29 29 29 30 30 28 27 26 24 23 24 25 28 30 28 29 29 29 29 29
22 23 25 26 25 25 25 24 24 25 31 28 27 27 25 24 24 23 25 25 29 29 30 29 28 27 28
22 23 23 23 24 25 24 24 23 23 24 26 26 26 26 26 24 24 24 26 30 30 27 26 28 29 28
21 22 23 23 23 24 24 23 23 23 23 24 23 22 22 24 26 25 25 26 28 28 26 25 25 27 26
22 22 22 22 22 22 22 22 21 22 23 23 23 21 19 19 22 27 26 26 27 26 27 27 27 28 26

GFSFLT2_sfc_dewp_075.txt.gz
Dewpoint
42 41 42 42 41 41 42 42 42 44 46 46 47 47 48 48 49 50 52 52 52 52 51 49 49 49 49
41 41 40 40 40 39 38 38 39 39 41 42 43 45 45 45 46 46 47 46 46 47 46 45 46 47 47
40 40 39 38 38 38 37 37 34 31 33 36 39 40 41 42 43 43 43 43 43 43 43 42 41 41 42
38 36 37 36 36 34 35 34 32 28 29 29 30 31 34 35 35 35 36 37 38 39 38 38 37 37 38
37 35 32 30 28 28 28 28 30 28 27 28 27 29 29 27 27 28 30 31 33 35 37 37 37 37 36
32 25 24 24 25 27 28 26 28 28 25 24 25 24 24 24 28 29 30 29 29 30 32 33 34 34 34
25 24 23 26 29 29 28 27 25 24 23 22 22 21 24 21 27 30 31 31 31 31 31 31 32 33 35
28 28 27 28 28 28 28 26 26 24 24 25 25 24 26 26 27 30 30 31 32 33 33 33 34 33 32
25 24 24 25 26 27 28 27 25 21 25 25 27 26 27 26 26 27 29 31 32 32 33 32 33 33 34
21 21 21 23 24 24 27 25 26 27 26 26 26 25 24 27 28 28 27 26 26 30 31 32 31 33 32
16 17 20 23 25 26 26 28 26 26 27 27 27 24 25 25 26 28 28 28 28 28 28 29 31 31 30
18 21 23 26 28 28 27 28 28 28 28 30 27 27 25 23 23 27 27 28 27 28 29 29 31 31 31
23 26 27 28 26 27 29 29 29 29 28 27 27 27 27 24 23 22 24 26 28 27 28 27 27 28 26
24 26 27 26 26 27 26 25 25 24 29 26 22 23 24 23 24 23 24 24 25 28 28 28 28 28 28
24 25 25 26 25 25 24 22 22 22 23 28 27 27 24 22 21 22 22 23 25 26 28 27 26 27 28
24 24 24 24 23 23 23 21 20 21 20 22 24 21 21 23 25 21 22 23 24 28 27 26 25 26 26
23 23 22 22 22 21 21 21 21 21 20 21 20 21 18 16 22 27 23 22 22 24 25 25 24 25 26

GFSFLT2_sfc_dewp_078.txt.gz
Dewpoint
41 40 40 41 40 41 41 39 40 42 44 45 46 47 47 47 49 50 52 53 53 54 54 54 53 52 50
40 39 38 39 39 39 38 38 36 35 39 42 43 44 45 44 46 47 47 47 48 49 49 49 49 50 50
38 39 39 37 34 35 36 35 32 33 32 34 36 39 41 41 42 42 42 44 45 45 45 45 45 44 45
37 36 36 34 33 29 28 29 29 26 29 30 31 32 32 34 34 35 36 38 40 41 40 39 38 38 39
30 30 27 25 24 26 25 25 27 26 25 24 25 25 27 31 31 31 32 32 33 35 37 37 37 37 37
23 21 21 22 26 26 23 24 21 25 21 21 22 20 22 23 27 30 31 30 30 31 32 33 35 36 36
23 22 23 25 25 25 25 23 22 23 22 20 22 23 25 25 29 30 30 31 31 31 31 31 31 32 33
26 26 26 27 26 26 24 24 25 24 23 19 25 24 25 26 29 29 33 32 32 32 32 33 33 34 34
24 23 22 22 24 25 23 22 21 22 25 23 24 23 25 26 26 29 29 29 30 32 33 34 33 32 34
19 23 21 22 24 22 23 15 18 20 24 19 21 22 17 25 26 26 27 30 30 30 29 31 33 31 32
16 16 19 22 24 25 26 19 19 22 27 21 13 19 25 23 22 24 24 27 27 28 30 31 30 30 31
17 20 22 23 23 25 26 25 24 27 28 28 23 20 19 16 19 22 21 24 22 24 28 29 30 31 32
21 22 22 21 20 21 23 28 28 28 28 26 26 25 25 23 22 23 23 22 25 20 23 27 27 27 25
22 23 22 19 19 18 14 16 19 23 24 29 26 16 14 23 23 22 23 20 18 20 24 25 27 27 27
21 21 23 22 21 17 14 11 11 11 14 19 25 22 23 22 22 21 21 20 22 23 24 27 28 27 26
20 20 18 16 15 15 13 11 10 12 12 13 13 14 16 20 25 21 18 20 20 22 28 26 25 26 26
16 15 15 14 19 12 11 12 12 11 11 11 9 14 19 16 19 23 21 14 17 21 22 23 22 24 25

GFSFLT2_sfc_dewp_084.txt.gz
Dewpoint
41 41 39 39 39 40 39 38 36 41 42 43 45 46 46 45 45 47 49 51 53 55 58 58 58 56 55
40 39 39 39 39 36 37 34 31 34 35 37 40 41 42 43 43 44 45 46 47 50 52 53 54 54 53
38 39 39 36 34 32 30 29 27 30 33 34 35 35 36 38 39 39 40 43 45 45 45 47 48 48 49
38 37 36 33 29 26 25 26 24 23 26 28 31 34 34 33 32 33 35 38 40 42 42 42 42 43 44
30 31 27 25 24 25 23 24 24 23 21 22 22 22 25 28 31 32 32 33 34 36 38 40 40 40 40
24 25 22 24 24 25 24 23 22 24 21 20 23 24 25 27 31 33 32 33 32 32 33 34 34 36 37
22 22 23 25 26 25 24 23 22 23 21 18 25 24 25 26 31 33 33 33 33 32 32 32 31 31 31
26 26 26 26 26 26 24 24 24 24 23 19 24 24 25 26 32 31 31 31 32 34 34 34 34 33 32
27 27 28 28 27 25 24 21 22 23 24 23 22 22 23 25 26 29 31 32 31 32 31 31 33 35 32
20 23 22 24 26 23 24 16 18 21 24 19 20 19 16 22 24 24 25 28 29 30 31 31 32 30 29
16 16 20 23 25 26 25 19 15 16 27 19 8 15 13 17 22 23 22 23 23 26 27 29 30 30 28
17 20 21 24 25 26 26 26 24 21 24 19 13 14 20 17 15 21 19 20 20 22 22 27 28 28 28
21 23 23 24 24 24 26 25 19 23 27 27 26 25 24 22 19 20 19 20 21 15 18 21 21 22 21
22 24 25 24 25 25 22 16 14 18 21 14 16 23 16 16 14 19 15 15 15 16 20 21 23 24 24
23 24 26 26 25 22 19 11 12 9 13 18 22 21 19 15 17 19 19 16 17 18 17 16 21 23 25
24 24 24 24 21 17 14 12 14 13 9 10 11 15 17 21 25 22 20 15 15 17 18 16 19 21 24
23 22 22 20 23 18 14 16 14 12 11 8 6 8 9 16 19 26 18 11 13 16 19 18 19 21 22